Location: Bottenau
(48.5138°N, 8.0462°E)
Time: 04:55:42
(UTC+00:00)

NOSS 3-1 (A) - Pass Details

Date: 18 April 2021
Orbit: 733 x 1479 km, 63.4° (Epoch: 01 May)

Event Time Altitude Azimuth Distance (km) Brightness Sun altitude
Rises 21:51:21 0° 317° (NW) 3,837 7.8 -26.7°
Reaches altitude 10° 21:53:52 10° 321° (NW) 2,982 7.0 -26.9°
Maximum altitude 22:01:05 64° 43° (NE) 1,387 4.2 -27.4°
Enters shadow 22:04:04 41° 106° (ESE) 1,828 4.6 -27.6°
